Date,TemperatureHighF,TemperatureAvgF,TemperatureLowF,DewpointHighF,DewpointAvgF,DewpointLowF,HumidityHigh,HumidityAvg,HumidityLow,PressureMaxIn,PressureMinIn,WindSpeedMaxMPH,WindSpeedAvgMPH,GustSpeedMaxMPH,PrecipitationSumIn
2013-1-1,21.9,10.1,3.0,8.3,2.3,-2.3,82,71,51,30.34,30.24,11,4,11,0.00
2013-1-2,28.7,17.2,4.1,20.5,10.4,-1.2,85,75,59,30.26,30.11,14,3,14,0.00
2013-1-3,26.7,19.4,7.8,23.3,14.1,3.7,88,80,60,30.39,30.16,15,3,15,0.00
2013-1-4,35.7,20.8,6.9,24.4,14.5,3.1,86,77,62,30.34,30.22,15,4,15,0.00
2013-1-5,35.7,28.7,19.0,31.4,24.5,16.0,88,84,70,30.28,30.00,25,8,25,0.00
2013-1-6,26.4,18.4,12.7,21.4,13.3,-3.0,85,80,67,30.37,30.02,18,4,18,0.00
2013-1-7,39.2,28.0,13.6,27.6,20.9,9.9,85,75,59,30.36,30.12,28,8,28,0.00
2013-1-8,42.6,34.7,26.2,32.8,28.0,21.5,84,77,67,30.16,30.02,23,5,23,0.00
2013-1-9,42.8,32.8,26.4,32.2,27.0,23.0,87,79,64,30.54,30.06,23,3,23,0.00
2013-1-10,39.7,32.7,25.5,33.7,27.6,21.7,90,82,62,30.54,29.87,22,7,22,0.00
2013-1-11,51.0,42.9,36.1,45.6,40.0,33.5,91,90,80,29.87,29.67,17,5,17,0.00
2013-1-12,50.9,31.6,19.4,45.3,25.3,14.6,87,77,64,30.12,29.69,18,7,18,0.00
2013-1-13,19.7,14.8,10.2,14.9,7.6,4.6,82,73,61,30.34,29.99,20,7,20,0.00
2013-1-14,30.7,16.5,4.4,13.8,7.4,-0.1,83,68,47,30.52,30.34,8,2,8,0.00
2013-1-15,32.9,19.8,8.7,19.0,11.4,4.3,83,70,49,30.48,30.18,14,4,14,0.00
2013-1-16,37.4,27.6,14.7,31.3,20.3,8.4,87,74,59,30.18,29.92,20,7,20,0.00
2013-1-17,34.5,25.7,17.4,29.7,15.2,9.1,83,66,41,30.47,30.16,20,5,20,0.00
2013-1-18,46.2,35.0,20.3,33.9,26.6,15.1,81,72,58,30.46,29.96,34,11,34,0.00
2013-1-19,52.3,37.9,17.2,36.4,29.5,6.1,81,72,50,30.18,29.83,46,10,46,0.00
2013-1-20,18.3,12.8,7.3,5.9,3.2,0.2,78,65,53,30.43,30.18,31,9,31,0.00
2013-1-21,11.6,5.7,-0.2,5.0,-5.3,-11.0,76,60,44,30.38,30.27,24,10,24,0.00
2013-1-22,14.9,6.0,-6.5,0.1,-4.9,-11.8,78,61,47,30.47,30.36,15,5,15,0.00
2013-1-23,27.6,16.2,8.0,12.7,5.5,-2.2,71,62,52,30.49,30.18,24,9,24,0.00
2013-1-24,20.3,11.1,1.9,8.3,-0.8,-7.3,66,58,47,30.70,30.33,20,9,20,0.00
2013-1-25,36.5,23.3,13.2,19.2,11.8,4.9,81,62,44,30.34,30.05,22,8,22,0.00
2013-1-26,30.3,19.4,6.0,14.7,8.4,0.9,79,63,44,30.45,30.30,14,5,14,0.00
2013-1-27,35.4,29.6,25.3,32.8,23.8,14.7,90,79,63,30.36,29.88,17,4,17,0.00
2013-1-28,44.7,40.6,35.4,41.4,37.8,32.8,91,90,86,30.02,29.75,16,6,16,0.00
2013-1-29,58.8,47.7,34.3,55.3,44.8,32.0,91,90,85,29.76,29.53,20,11,20,0.00
2013-1-30,34.3,26.3,12.7,32.0,23.0,8.0,91,87,77,29.82,29.39,20,4,20,0.00
2013-1-31,14.5,6.8,-2.0,9.9,0.5,-7.9,85,75,65,30.33,29.82,23,10,23,0.00
2013-2-1,14.7,3.7,-6.3,10.3,-4.1,-12.6,83,70,53,30.45,30.16,21,7,21,0.00
2013-2-2,23.0,16.8,10.5,18.7,10.6,5.0,86,77,54,30.19,30.05,32,7,32,0.00
2013-2-3,23.7,17.9,13.6,17.2,12.0,9.0,88,78,61,30.16,30.01,20,6,20,0.00
2013-2-4,25.3,20.3,10.9,19.3,14.5,6.5,86,78,67,30.05,29.88,21,8,21,0.00
2013-2-5,33.6,25.4,10.9,27.5,20.1,6.8,87,80,72,30.18,29.88,18,6,18,0.00
2013-2-6,40.1,29.8,12.7,33.0,23.9,9.3,86,79,62,30.26,30.08,14,5,14,0.00
2013-2-7,35.4,33.3,30.0,31.7,30.3,26.3,91,89,83,30.15,29.96,22,7,22,0.00
2013-2-8,33.4,27.5,24.4,26.3,22.0,19.4,86,80,69,30.42,30.15,22,8,22,0.00
2013-2-9,35.2,28.0,23.9,29.0,23.9,20.1,89,84,77,30.42,30.07,20,6,20,0.00
2013-2-10,45.5,37.4,29.1,43.0,34.0,26.3,91,88,75,30.08,29.46,27,10,27,0.00
2013-2-11,34.8,29.8,25.1,29.6,23.2,19.2,81,76,70,30.15,29.57,31,12,31,0.00
2013-2-12,37.9,28.4,23.3,26.1,21.6,18.0,85,76,58,30.19,29.95,19,5,19,0.00
2013-2-13,45.3,32.7,21.9,33.1,26.9,18.7,88,80,61,29.95,29.74,12,3,12,0.00
2013-2-14,40.5,34.8,26.6,31.1,29.5,22.4,88,81,62,30.10,29.71,21,7,21,0.00
2013-2-15,32.1,23.4,14.7,23.4,12.8,6.3,82,64,41,30.31,30.10,23,9,23,0.00
2013-2-16,27.3,17.4,7.7,11.9,8.4,3.1,82,68,50,30.31,30.20,18,5,18,0.00
2013-2-17,34.3,22.1,10.0,22.7,13.2,4.4,80,69,55,30.24,29.91,21,7,21,0.63
2013-2-18,57.0,34.0,16.7,40.5,27.5,10.9,90,77,54,29.91,29.59,31,9,31,0.12
2013-2-19,17.2,10.9,4.2,12.0,3.8,-2.5,82,73,66,30.35,29.82,34,15,34,0.08
2013-2-20,25.8,14.3,2.8,13.8,5.6,-3.4,78,68,53,30.47,30.34,14,5,14,0.00
2013-2-21,26.2,19.9,11.8,22.7,15.4,7.0,89,82,75,30.43,29.97,25,10,25,0.00
2013-2-22,33.0,25.9,22.1,30.4,23.1,19.1,90,89,88,30.00,29.85,19,7,19,0.02
2013-2-23,32.9,22.8,12.9,21.4,17.5,9.2,88,80,61,30.06,29.98,14,3,14,0.00
2013-2-24,35.7,21.4,8.7,24.7,15.4,5.4,87,78,63,30.19,30.06,9,2,9,0.00
2013-2-25,40.1,30.2,19.2,30.4,24.1,15.7,87,78,65,30.20,29.99,66,5,66,0.00
2013-2-26,34.7,32.2,29.4,27.6,26.7,25.2,89,80,71,29.99,29.64,32,17,32,0.00
2013-2-27,35.2,30.6,28.0,30.0,26.9,24.8,89,86,81,29.90,29.71,22,11,22,0.00
2013-2-28,36.5,32.2,28.2,28.5,27.0,24.6,88,81,71,30.18,29.89,19,9,19,0.00
2013-3-1,29.1,25.5,18.1,24.8,18.5,14.0,87,75,65,30.32,30.17,25,10,25,0.00
2013-3-2,32.3,20.7,12.9,15.8,11.7,7.7,82,69,48,30.33,30.24,14,6,14,0.00
2013-3-3,37.0,19.6,8.7,20.8,10.8,4.3,84,70,46,30.24,30.12,10,2,10,0.00
2013-3-4,30.7,26.5,22.8,23.6,19.4,12.8,83,74,65,30.14,29.99,25,13,25,0.00
2013-3-5,34.7,29.2,26.0,29.8,25.3,22.2,89,85,79,30.21,29.93,12,4,12,0.12
2013-3-6,33.6,26.1,20.3,23.5,20.3,15.8,85,79,65,30.41,30.20,24,8,24,0.02
2013-3-7,39.3,25.1,16.8,27.4,19.0,13.1,85,78,62,30.48,30.39,9,3,9,0.00
2013-3-8,37.2,28.7,18.6,29.0,23.3,15.3,87,80,71,30.48,30.28,18,9,18,0.00
2013-3-9,37.7,35.1,32.9,34.8,31.6,28.0,90,87,82,30.29,29.83,20,10,20,0.37
2013-3-10,41.9,38.1,34.3,39.0,35.6,32.0,92,91,89,29.84,29.65,17,4,17,0.61
2013-3-11,34.3,32.1,28.0,32.0,29.1,22.8,92,89,80,29.94,29.67,22,7,22,0.04
2013-3-12,37.0,28.5,22.8,30.3,22.7,17.6,87,79,67,30.18,29.93,33,7,33,0.00
2013-3-13,35.6,26.9,19.9,19.4,16.7,13.9,81,66,44,30.42,30.18,25,8,25,0.00
2013-3-14,39.0,26.9,20.4,30.9,21.8,15.2,85,81,71,30.41,30.15,17,3,17,0.00
2013-3-15,41.5,36.1,27.5,34.9,31.6,24.2,89,83,76,30.04,29.81,14,5,14,0.00
2013-3-16,37.4,32.0,28.5,30.8,26.8,21.6,90,81,69,30.23,29.80,17,8,17,0.00
2013-3-17,34.8,28.7,22.8,25.5,21.0,13.5,83,73,60,30.27,30.00,19,11,19,0.00
2013-3-18,35.4,27.4,17.2,30.8,22.6,10.5,89,82,72,30.00,29.72,30,9,30,0.16
2013-3-19,30.0,20.5,12.3,18.0,11.8,5.6,79,69,54,30.22,29.94,30,10,30,0.00
2013-3-20,24.4,17.2,9.3,14.0,7.0,1.2,74,64,52,30.26,30.15,26,12,26,0.00
2013-3-21,33.9,21.9,6.6,16.9,10.6,1.5,80,63,44,30.18,30.08,29,3,29,0.00
2013-3-22,41.5,29.1,14.7,24.1,17.3,9.4,80,63,42,30.15,30.08,29,2,29,0.00
2013-3-23,43.8,33.5,24.4,25.1,21.9,19.0,80,63,46,30.19,30.08,12,4,12,0.00
2013-3-24,32.5,29.5,27.1,27.3,25.6,23.7,89,85,75,30.12,29.83,24,11,24,0.02
2013-3-25,39.3,31.3,26.9,26.6,23.5,19.8,86,73,61,30.21,29.91,29,11,29,0.00
2013-3-26,41.7,33.6,25.1,28.7,24.2,20.1,81,69,53,30.36,30.21,17,5,17,0.00
2013-3-27,49.8,38.1,27.5,30.2,24.4,21.6,82,59,37,30.42,30.35,18,2,18,0.00
2013-3-28,54.5,40.6,26.7,33.1,27.2,0.0,80,60,40,30.43,30.33,9,1,9,0.00
2013-3-29,58.8,44.5,31.8,37.3,30.6,24.8,76,59,39,30.39,30.27,9,2,9,0.00
2013-3-30,56.1,43.7,33.9,43.3,36.0,27.4,89,74,60,30.28,29.94,22,6,22,0.00
2013-3-31,51.6,42.2,31.6,43.3,34.1,23.3,90,74,43,30.06,29.90,23,7,23,0.00
2013-4-1,39.9,32.4,24.8,23.6,19.3,16.2,78,60,41,30.31,30.05,18,8,18,0.00
2013-4-2,44.9,33.5,19.5,26.0,18.8,14.9,83,57,33,30.40,30.31,22,5,22,0.00
2013-4-3,47.4,35.6,21.3,21.8,18.7,14.5,78,52,32,30.51,30.34,16,4,16,0.00
2013-4-4,62.7,45.2,27.1,38.5,28.3,17.3,74,53,34,30.35,30.07,18,4,18,0.00
2013-4-5,54.1,43.1,31.8,32.1,27.3,23.4,78,55,34,30.30,30.10,22,8,22,0.00
2013-4-6,67.8,50.0,35.7,49.1,35.6,19.9,85,59,37,30.11,29.67,40,13,40,0.04
2013-4-7,51.2,42.0,35.7,41.5,36.3,32.2,87,80,60,30.02,29.78,20,6,20,0.00
2013-4-8,74.8,60.7,43.7,56.6,50.8,38.6,90,72,47,29.97,29.66,18,5,18,0.18
2013-4-9,55.9,48.3,39.9,50.8,44.7,36.7,90,87,83,30.00,29.87,28,12,28,0.27
2013-4-10,40.2,37.9,34.3,37.2,34.9,31.4,90,89,88,30.11,29.71,34,13,34,0.94
2013-4-11,48.5,39.5,35.4,44.8,36.4,31.9,91,89,85,29.84,29.64,27,11,27,0.14
2013-4-12,40.6,36.6,34.3,36.3,31.8,29.0,89,83,71,29.97,29.66,24,8,24,0.00
2013-4-13,50.7,38.7,32.1,33.1,29.8,25.2,86,71,49,30.05,29.94,20,7,20,0.02
2013-4-14,74.8,52.9,36.5,52.9,41.6,31.9,88,68,40,30.04,29.60,25,11,25,0.12
2013-4-15,64.2,49.2,39.0,50.3,41.7,33.4,90,77,39,30.10,29.71,20,5,20,0.26
2013-4-16,55.9,44.5,32.7,37.9,33.8,28.4,88,68,45,30.30,30.06,17,6,17,0.00
2013-4-17,48.5,42.4,39.3,43.0,36.1,34.2,90,79,64,30.34,29.87,30,12,30,1.94
2013-4-18,60.0,48.4,35.4,57.4,45.1,31.0,92,88,81,29.93,10.93,22,7,22,1.94
2013-4-19,37.9,34.9,32.5,31.3,29.0,26.9,87,79,68,30.07,29.61,30,9,30,1.94
2013-4-20,52.1,36.0,26.6,33.5,27.2,-9.9,88,72,14,30.42,30.07,15,3,15,1.94
2013-4-21,58.6,45.3,34.3,41.8,34.4,25.9,77,66,52,30.49,30.28,28,10,28,0.00
2013-4-22,69.6,56.5,45.1,46.0,40.2,36.6,75,56,35,30.31,30.05,24,6,24,0.00
2013-4-23,53.7,41.2,36.8,46.3,36.2,30.5,87,82,75,30.11,30.02,21,8,21,0.20
2013-4-24,55.2,41.7,32.1,33.3,29.7,25.5,79,64,36,30.17,29.10,22,6,22,0.00
2013-4-25,48.0,39.7,33.0,37.0,30.3,-18.6,87,71,46,30.34,30.13,26,8,26,0.02
2013-4-26,69.6,47.7,39.9,48.4,35.6,26.6,79,63,43,30.34,30.24,34,8,34,0.00
2013-4-27,65.6,56.7,42.9,51.3,45.5,39.0,87,67,50,30.33,30.06,19,2,19,0.00
2013-4-28,76.6,59.4,44.2,55.0,46.7,40.6,88,65,37,30.06,29.88,11,1,11,0.00
2013-4-29,79.0,58.1,49.4,60.1,50.5,45.7,87,77,49,29.95,29.74,20,4,20,0.00
2013-4-30,87.4,73.9,61.8,60.5,55.1,49.7,82,56,29,29.97,29.75,33,10,33,0.00
2013-5-1,85.2,71.5,51.8,59.4,53.5,42.2,74,55,30,30.23,29.96,25,6,25,0.00
2013-5-2,52.3,44.5,37.2,43.0,38.1,34.0,89,78,67,30.36,30.20,30,16,30,0.12
2013-5-3,48.9,39.8,34.8,46.1,36.9,31.6,90,89,88,30.29,29.98,21,12,21,1.32
2013-5-4,69.0,58.5,48.9,57.1,52.2,46.1,90,80,62,30.12,29.98,17,7,17,0.00
2013-5-5,73.5,61.7,-12.7,55.8,50.7,-26.4,90,70,45,30.13,29.11,16,6,16,0.00
2013-5-6,76.2,64.0,49.6,53.1,47.4,43.7,82,57,37,30.15,30.06,15,3,15,0.00
2013-5-7,81.6,66.8,51.9,53.3,47.9,43.5,80,54,29,30.14,30.06,10,1,10,0.00
2013-5-8,84.5,64.3,51.9,57.9,48.7,43.5,75,58,32,30.12,30.03,13,1,13,0.00
2013-5-9,72.6,62.4,57.7,62.4,57.0,52.6,98,82,66,30.05,29.87,12,2,12,0.51
2013-5-10,60.0,50.3,45.1,57.1,45.8,41.5,90,85,77,30.08,29.88,19,10,19,0.06
2013-5-11,57.7,50.3,39.7,50.5,39.6,26.2,90,70,37,30.19,29.97,31,8,31,0.02
2013-5-12,57.5,46.9,34.5,32.9,29.1,26.3,73,51,35,30.26,30.17,21,6,21,0.02
2013-5-13,70.3,43.7,34.8,42.8,31.5,27.2,76,64,29,30.26,29.99,14,0,14,0.00
2013-5-14,84.9,58.4,54.3,62.4,45.2,41.1,71,62,47,29.99,29.69,17,6,17,0.00
2013-5-15,84.0,73.1,61.5,56.8,52.3,46.0,67,49,30,29.96,29.73,62,4,62,0.00
2013-5-16,85.1,71.9,55.0,54.9,49.3,21.7,72,47,14,30.02,29.93,17,2,17,0.00
2013-5-17,83.1,70.2,60.4,62.1,55.9,48.9,79,61,46,30.07,29.97,18,5,18,0.00
2013-5-18,83.1,70.7,57.0,66.7,59.3,51.9,84,69,50,30.09,29.97,15,4,15,0.00
2013-5-19,82.9,67.6,62.2,70.0,61.4,57.5,88,81,64,30.02,29.89,19,6,19,0.39
2013-5-20,79.9,67.5,61.5,64.8,60.2,57.9,88,78,60,29.82,29.74,12,7,15,0.04
2013-5-21,77.5,70.8,61.5,60.2,57.2,28.5,78,63,52,29.78,29.74,20,3,20,0.39
2013-5-22,72.5,61.7,55.9,57.5,54.4,51.8,87,78,54,29.86,29.71,13,2,13,0.39
2013-5-23,65.6,57.9,51.0,54.1,50.0,39.9,89,76,50,30.35,29.85,22,8,22,0.04
2013-5-24,69.6,55.2,39.5,43.4,39.1,34.5,86,57,32,30.52,30.34,13,3,13,0.04
2013-5-25,57.7,50.0,46.7,47.8,44.1,41.1,85,80,57,30.46,30.32,23,5,23,0.41
2013-5-26,56.4,51.6,45.6,52.0,46.6,41.4,89,83,71,30.35,30.12,21,8,21,0.65
2013-5-27,66.3,60.1,55.5,61.7,56.5,52.0,90,88,84,30.14,29.89,17,8,17,0.08
2013-5-28,80.4,67.7,58.6,72.3,63.3,55.4,90,86,74,29.90,29.72,22,4,22,0.16
2013-5-29,84.7,70.7,60.6,72.1,62.9,56.0,86,77,63,29.99,29.82,18,3,18,0.02
2013-5-30,83.4,74.5,62.2,70.2,66.0,58.4,88,75,60,29.93,29.75,30,7,30,0.65
2013-5-31,77.1,68.6,62.4,66.4,61.6,23.3,88,79,60,29.87,29.71,31,6,31,0.22
2013-6-1,78.9,70.6,61.1,65.6,60.2,56.5,88,71,48,29.86,29.74,19,5,19,0.00
2013-6-2,62.7,57.7,49.8,57.2,48.6,-3.5,87,73,58,30.12,29.86,22,6,22,0.00
2013-6-3,72.6,61.6,47.4,55.6,47.7,43.1,88,63,42,30.20,30.09,9,1,9,0.00
2013-6-4,73.2,62.5,51.2,54.4,49.7,45.6,82,64,44,30.25,30.11,20,4,20,0.00
2013-6-5,65.4,60.2,55.9,57.5,53.1,47.8,88,78,66,30.15,30.01,14,4,14,0.08
2013-6-6,65.3,59.0,55.2,57.2,53.9,51.7,88,84,73,30.03,29.96,10,4,10,0.02
2013-6-7,73.2,62.6,55.0,55.7,52.9,50.3,87,72,52,30.07,29.99,11,4,11,0.00
2013-6-8,78.4,67.4,55.4,56.4,52.4,48.2,80,60,44,30.05,29.99,14,3,14,0.00
2013-6-9,77.7,65.6,60.4,63.5,57.4,49.8,88,76,58,30.02,29.85,20,5,20,0.63
2013-6-10,79.3,67.4,57.9,67.0,60.5,6.2,90,80,60,29.97,29.84,16,1,16,0.02
2013-6-11,87.4,74.4,59.7,70.4,64.5,55.8,88,72,53,30.00,29.88,10,1,10,0.00
2013-6-12,92.3,78.5,66.7,75.0,68.5,62.7,87,73,53,29.97,29.67,30,5,30,0.20
2013-6-13,81.8,69.9,63.1,63.0,60.2,56.2,89,73,46,30.12,29.80,20,6,20,0.45
2013-6-14,77.4,62.6,55.9,60.1,55.2,51.1,86,77,53,30.22,29.10,8,1,8,0.00
2013-6-15,84.9,69.9,64.7,69.6,61.4,56.3,84,75,54,30.11,15.95,13,2,13,430.78
2013-6-16,88.8,77.2,64.2,69.7,61.7,52.6,87,62,36,30.03,29.97,13,1,13,0.00
2013-6-17,91.7,85.3,63.0,63.8,59.2,52.8,74,42,32,30.04,29.94,11,2,11,0.00
2013-6-18,78.9,69.0,58.4,60.0,56.2,51.7,80,65,49,30.15,29.98,19,7,19,430.78
2013-6-19,84.7,70.3,54.3,60.6,54.5,45.3,75,59,40,30.22,30.12,10,3,10,0.00
2013-6-20,91.2,77.9,61.5,64.1,60.4,54.9,79,57,37,30.20,30.08,17,3,17,0.00
2013-6-21,78.4,73.3,65.1,69.1,65.3,61.0,87,76,65,30.24,30.00,23,4,23,0.20
2013-6-22,89.4,77.0,64.5,78.1,69.8,60.5,88,79,59,30.22,29.98,23,5,23,0.37
2013-6-23,86.3,76.3,67.4,72.7,66.9,63.2,87,73,55,30.09,29.92,20,3,20,0.16
2013-6-24,74.1,67.9,64.5,67.4,63.4,60.9,89,86,77,30.17,29.96,18,4,18,0.59
2013-6-25,85.8,76.4,66.9,75.7,70.5,63.6,90,83,70,30.00,16.94,10,1,10,0.83
2013-6-26,88.1,77.3,66.9,74.0,69.3,63.2,89,77,55,29.88,29.76,15,2,15,0.83
2013-6-27,89.4,79.7,69.2,75.1,67.4,14.8,88,68,44,29.94,29.85,30,8,30,0.83
2013-6-28,82.7,74.4,63.3,63.4,61.0,57.6,83,64,48,29.90,29.76,24,6,24,0.83
2013-6-29,74.4,66.2,62.9,65.4,60.8,21.6,87,83,69,29.92,29.74,24,6,24,0.83
2013-6-30,79.1,69.2,62.0,61.7,57.6,53.1,85,68,48,30.12,29.92,21,8,21,0.83
2013-7-1,62.2,62.2,62.2,53.1,53.1,53.1,72,72,72,30.12,30.12,1,1,1,0.83
2013-7-5,88.0,77.5,64.6,66.2,62.8,59.3,83,62,45,30.14,30.07,8,3,8,0.00
2013-7-6,88.3,77.1,64.0,68.9,64.2,59.1,84,66,45,30.11,30.03,7,3,9,0.00
2013-7-7,90.0,77.3,67.3,71.3,67.4,63.0,86,73,54,30.07,30.01,8,3,8,0.00
2013-7-8,88.7,80.3,70.3,76.3,71.7,66.6,88,76,64,30.07,30.02,13,5,13,0.71
2013-7-9,87.3,79.1,71.2,77.6,73.1,67.5,88,82,71,30.08,29.96,10,2,10,0.37
2013-7-10,82.8,76.3,63.7,72.8,66.0,58.1,88,72,51,30.10,29.97,114,10,114,0.00
2013-7-11,81.0,67.6,60.1,64.6,59.0,56.2,87,75,51,30.21,30.12,6,1,6,0.00
2013-7-12,84.5,72.2,57.2,64.2,59.3,53.4,87,66,44,30.25,30.15,10,0,10,0.00
2013-7-13,86.1,71.3,57.9,66.9,60.8,53.4,85,70,52,30.23,30.15,11,1,11,0.00
2013-7-14,86.5,76.6,64.2,71.8,66.3,59.4,85,71,56,30.29,30.21,11,2,11,0.00
2013-7-15,92.4,81.0,70.1,76.0,71.6,65.7,87,74,56,30.34,30.27,12,1,12,0.00
2013-7-16,93.7,80.6,71.7,78.1,72.8,67.6,88,78,56,30.38,30.31,7,0,7,0.00
2013-7-17,95.3,83.5,72.5,79.1,73.3,68.1,87,73,53,30.40,30.34,6,0,6,0.00
2013-7-18,94.1,87.7,73.2,77.9,74.5,69.1,87,66,53,30.28,30.03,22,3,22,0.00
2013-7-19,95.0,83.0,72.3,77.7,71.6,-20.0,85,70,53,30.04,29.87,16,3,16,0.00
2013-7-20,91.2,76.8,60.9,68.8,63.8,57.0,87,66,45,30.04,29.94,22,1,22,0.00
2013-7-21,85.1,73.7,63.5,71.6,65.8,59.2,88,77,60,30.03,29.93,14,1,14,0.02
2013-7-22,88.7,74.3,62.4,74.8,66.4,58.8,89,77,58,29.98,29.82,21,2,21,0.18
2013-7-23,77.9,69.9,61.3,64.9,59.2,54.6,88,70,51,30.07,29.85,17,6,17,0.00
2013-7-24,81.3,66.8,55.0,59.7,55.8,51.1,87,69,43,30.17,30.06,10,2,10,0.00
2013-7-25,83.1,70.3,55.2,65.1,60.0,51.7,88,71,53,30.18,30.09,14,3,14,0.02
2013-7-26,79.8,68.7,57.3,70.2,61.7,53.2,89,79,48,30.13,29.97,19,6,19,0.22
2013-7-27,65.3,57.7,51.0,54.6,49.8,45.9,88,76,55,30.08,30.02,18,6,18,0.22
2013-7-28,72.6,61.6,51.2,54.5,50.8,46.5,87,69,49,30.14,29.99,16,4,16,0.22
2013-7-29,80.9,66.5,48.0,60.1,54.6,44.3,87,68,46,30.24,30.13,22,1,22,0.22
2013-7-30,66.0,61.9,60.2,62.0,57.1,32.0,90,84,32,30.23,30.13,10,2,10,0.08
2013-7-31,82.7,70.0,62.9,68.3,63.2,58.7,91,80,61,30.15,30.06,8,1,8,0.02
2013-8-1,84.7,71.6,58.8,62.7,58.5,53.6,89,66,41,30.14,29.99,16,3,16,0.08
2013-8-2,86.7,72.3,65.1,69.9,63.5,59.5,86,75,51,30.07,29.95,17,3,17,0.08
2013-8-3,80.7,70.8,58.6,60.5,56.9,53.6,86,64,42,30.20,30.06,15,5,15,0.08
2013-8-4,80.2,70.2,55.0,59.3,55.5,50.3,84,62,40,30.30,18.75,7,0,7,0.00
2013-8-5,76.1,64.7,57.9,68.0,59.8,53.0,89,84,75,30.18,29.94,21,4,21,0.67
2013-8-6,83.8,73.3,65.4,74.0,68.4,-14.8,90,85,71,29.99,29.90,11,2,11,0.00
2013-8-7,85.8,74.1,63.1,72.6,67.7,58.5,89,81,54,30.07,29.87,22,2,22,0.00
2013-8-8,81.5,69.9,59.1,65.9,61.2,55.2,88,75,55,30.13,30.05,11,2,11,0.00
2013-8-9,84.9,73.1,59.9,69.6,63.9,56.3,88,74,57,30.12,30.07,10,1,10,0.00
2013-8-10,81.1,74.4,57.9,60.6,57.5,53.8,87,57,44,30.26,30.17,17,5,17,0.00
2013-8-11,84.9,74.1,62.4,69.4,63.9,57.3,98,71,56,30.22,30.10,13,2,13,436.59
2013-8-12,84.7,72.9,62.9,69.5,63.7,57.1,87,74,50,30.12,30.01,15,4,15,0.00
2013-8-13,74.3,64.3,53.9,58.5,52.8,47.3,87,68,43,30.25,30.07,18,6,18,436.59
2013-8-14,80.7,61.7,50.7,59.1,50.4,46.4,85,69,39,30.31,30.22,6,0,6,0.00
2013-8-15,80.7,69.1,55.0,59.4,55.0,48.5,85,63,41,30.26,19.25,7,0,7,0.00
2013-8-16,84.0,67.5,51.9,60.3,55.1,48.2,87,67,41,30.28,30.22,11,2,11,0.00
2013-8-17,83.6,68.3,55.0,62.8,56.6,51.2,88,68,42,30.32,30.23,14,2,14,0.00
2013-8-18,78.6,62.0,54.6,63.4,56.0,41.3,88,82,58,30.30,29.30,1,0,1,0.00
2013-8-19,86.5,76.0,58.8,68.0,64.3,54.3,88,68,51,30.20,19.25,14,3,14,0.00
2013-8-20,88.1,75.8,63.5,69.6,64.8,58.8,87,70,49,30.18,30.09,22,3,22,0.00
2013-8-21,89.2,78.0,66.9,72.5,67.9,62.6,86,72,55,30.14,30.05,17,4,17,0.00
2013-8-22,79.3,71.5,64.9,68.7,65.7,61.1,88,82,68,30.22,30.07,18,3,18,0.10
2013-8-23,85.1,70.9,58.8,69.6,61.4,55.6,90,74,48,30.26,30.18,13,2,13,0.00
2013-8-24,88.3,69.3,58.8,70.3,59.0,52.7,81,70,56,30.32,30.23,8,2,8,0.00
2013-8-25,91.0,84.9,32.0,73.5,69.7,32.0,100,61,47,30.31,19.33,17,7,17,0.10
2013-8-26,92.6,79.5,66.5,76.2,69.3,61.7,86,72,53,30.23,30.06,16,4,16,0.00
2013-8-27,95.5,82.9,71.2,75.0,70.9,66.6,86,69,49,30.08,29.94,16,5,16,0.00
2013-8-28,91.0,80.0,70.3,78.3,71.8,65.1,85,77,62,30.12,29.97,13,4,13,0.00
2013-8-29,90.3,77.0,67.6,75.5,69.4,63.9,89,78,61,30.17,30.05,11,2,11,0.00
2013-8-30,100.2,83.9,70.3,79.8,72.3,66.6,88,71,42,30.06,29.86,16,3,16,0.00
2013-8-31,85.8,75.1,67.8,72.5,67.9,63.8,88,79,61,29.94,29.87,18,5,18,0.00
2013-9-1,93.3,75.3,63.6,75.2,65.0,57.5,90,73,45,29.97,29.84,18,3,18,0.00
2013-9-2,77.3,66.3,53.4,61.4,56.3,49.5,88,72,48,30.11,29.96,18,6,18,0.00
2013-9-3,80.4,64.3,49.6,59.3,53.5,26.3,89,70,44,30.20,30.10,6,0,6,0.00
2013-9-4,90.1,71.2,50.9,66.6,58.9,47.5,89,68,42,30.23,30.13,8,0,8,0.00
2013-9-5,82.4,71.8,63.3,68.4,63.5,57.8,85,76,62,30.30,30.19,16,5,16,0.00
2013-9-6,89.9,73.3,56.4,66.2,59.3,50.6,81,63,41,30.28,30.07,14,3,14,0.00
2013-9-7,92.4,73.5,64.9,72.1,63.6,-17.2,84,72,50,30.08,29.96,12,2,12,0.00
2013-9-8,82.0,74.0,68.7,70.8,67.2,64.3,87,80,69,30.10,29.99,24,9,24,0.10
2013-9-9,99.8,81.5,67.1,75.6,68.6,63.4,89,68,39,30.02,29.88,16,3,16,0.10
2013-9-10,98.2,83.0,68.1,68.6,63.8,61.0,78,55,32,30.09,29.96,22,4,22,0.10
2013-9-11,89.2,77.2,67.1,69.2,64.6,61.9,85,66,51,30.16,30.07,16,3,16,0.00
2013-9-12,78.0,67.8,56.3,62.7,54.0,34.2,88,64,38,30.22,30.10,26,6,26,0.00
2013-9-13,71.4,58.5,47.3,48.3,43.3,40.0,82,59,35,30.31,30.20,15,5,15,0.00
2013-9-14,76.2,60.3,41.7,50.0,44.3,36.6,84,58,34,30.26,30.06,11,1,11,0.00
2013-9-15,61.7,56.6,52.1,57.9,51.4,45.3,89,83,63,30.28,30.03,22,3,22,0.76
2013-9-16,67.2,57.1,50.5,51.5,48.0,45.0,89,73,47,30.46,30.28,18,5,18,0.00
2013-9-17,69.9,58.0,46.0,57.2,50.5,42.7,89,77,59,30.41,29.18,11,2,11,0.00
2013-9-18,80.6,64.4,59.5,70.6,58.2,54.2,89,80,71,30.15,20.60,22,1,22,0.94
2013-9-19,92.4,77.1,66.0,72.5,67.4,62.5,89,74,47,29.98,29.79,21,6,21,0.22
2013-9-20,69.3,64.0,54.1,62.7,59.6,48.9,89,86,61,30.00,20.78,15,5,15,0.88
2013-9-21,69.6,58.0,47.3,52.2,48.1,44.0,89,71,50,30.05,29.97,18,4,18,0.02
2013-9-22,71.9,52.1,44.0,51.9,45.3,40.7,88,79,45,30.15,20.78,11,1,11,0.86
2013-9-23,74.8,59.5,45.6,53.7,48.1,42.3,88,68,44,30.16,30.05,15,5,15,0.00
2013-9-24,74.3,64.0,48.0,55.0,51.4,44.1,87,65,47,30.08,20.78,17,6,17,0.00
2013-9-25,77.1,61.8,-14.3,55.2,50.6,-17.7,88,69,43,30.06,29.98,12,5,12,0.00
2013-9-26,82.7,61.4,50.5,60.9,52.2,47.1,88,74,46,30.13,20.78,14,5,14,0.86
2013-9-27,85.4,68.4,54.5,61.1,52.4,48.6,81,59,36,30.19,30.08,15,4,15,0.00
2013-9-28,82.0,64.2,51.9,64.3,56.2,48.5,89,76,53,30.10,29.95,23,4,23,0.00
2013-9-29,75.0,58.6,43.7,59.3,46.7,41.0,91,68,36,30.18,30.07,7,0,7,0.00
2013-9-30,77.1,60.5,44.2,54.0,46.9,39.4,84,64,38,30.07,20.78,21,3,21,2.04
2013-10-1,84.3,68.0,55.2,64.5,58.1,50.9,88,72,49,30.06,29.94,17,4,17,0.00
2013-10-2,81.7,66.0,56.1,61.8,52.5,46.7,85,65,35,30.16,20.78,15,5,15,2.04
2013-10-3,80.4,67.8,63.3,69.8,62.9,59.0,89,85,66,30.02,20.78,17,2,17,2.04
2013-10-4,74.8,68.0,62.7,70.0,64.1,59.3,89,87,83,30.10,29.94,27,4,27,0.00
2013-10-5,73.7,66.1,47.3,68.3,60.4,41.3,89,82,67,29.97,29.86,20,4,20,0.00
2013-10-6,55.7,45.1,38.8,43.1,39.5,35.8,89,81,57,29.91,28.85,14,1,14,2.04
2013-10-7,74.1,56.5,38.8,52.0,44.7,35.8,90,68,36,30.16,29.88,15,3,15,0.00
2013-10-8,78.6,58.3,45.6,53.5,46.0,41.4,85,67,33,30.23,20.78,19,2,19,2.04
2013-10-9,76.8,56.4,47.4,52.7,45.3,42.2,85,69,32,30.28,20.78,12,1,12,2.04
2013-10-10,77.9,58.5,43.8,56.8,47.8,39.9,86,70,45,30.23,20.78,10,2,10,2.04
2013-10-11,78.4,65.3,53.2,60.2,53.9,49.4,87,69,45,30.10,29.94,28,4,28,0.00
2013-10-12,70.1,61.3,45.3,56.1,47.3,35.9,85,62,38,30.28,29.95,20,3,20,0.00
2013-10-13,65.8,52.6,37.9,44.4,36.0,31.8,82,55,35,30.49,30.28,11,2,11,0.00
2013-10-14,65.1,51.6,37.7,46.6,39.8,32.7,83,65,45,30.47,30.13,18,5,18,0.00
2013-10-15,66.0,55.6,49.1,59.7,48.1,41.1,88,76,57,30.13,20.78,17,5,17,2.04
2013-10-16,50.3,48.3,46.7,44.8,43.4,42.2,88,83,77,30.05,29.93,22,4,22,0.00
2013-10-17,61.3,49.4,39.9,47.9,40.4,33.5,89,73,41,30.03,29.90,14,2,14,0.00
2013-10-18,51.4,45.0,39.0,40.6,36.7,33.0,87,73,54,30.07,29.92,20,5,20,0.00
2013-10-19,55.2,45.2,34.8,39.4,36.0,-6.2,85,71,48,29.96,28.96,16,4,16,0.00
2013-10-20,58.1,45.1,33.2,45.8,38.3,29.8,88,78,60,29.93,29.79,16,3,16,0.00
2013-10-21,48.0,40.4,28.9,41.3,31.4,22.6,82,71,44,30.08,20.78,20,6,20,2.04
2013-10-22,37.2,32.0,25.1,34.0,28.3,1.0,89,86,78,30.08,29.99,10,1,10,0.00
2013-10-23,46.2,36.2,28.2,35.5,28.9,24.6,87,76,52,30.13,30.06,22,4,22,0.00
2013-10-24,43.1,34.3,25.5,30.9,23.9,19.4,84,66,50,30.41,30.13,20,4,20,0.00
2013-10-25,54.6,39.6,23.3,35.2,26.0,19.1,85,61,37,30.46,30.10,18,5,18,0.00
2013-10-26,55.0,43.8,31.8,34.7,29.1,24.3,76,57,39,30.18,29.96,22,6,22,0.35
2013-10-27,57.3,41.0,24.8,35.1,28.4,20.9,85,63,38,30.17,30.00,16,3,16,0.00
2013-10-28,54.1,41.8,32.3,41.0,33.7,25.6,82,73,60,30.42,30.10,22,8,22,0.00
2013-10-29,57.7,45.4,35.7,42.3,36.7,-26.6,86,72,52,30.41,21.04,16,7,16,2.04
2013-10-30,58.1,52.4,46.7,55.2,48.7,-1.3,90,87,77,30.17,29.79,21,4,21,0.18
2013-10-31,61.7,53.0,41.1,58.7,49.9,37.5,90,89,86,29.79,29.44,18,6,18,0.08
2013-11-1,48.3,43.1,38.1,42.8,39.2,12.0,89,86,79,29.86,29.56,15,4,15,0.00
2013-11-2,51.9,39.2,30.9,40.7,32.8,-13.4,89,79,53,30.23,29.86,14,4,14,0.00
2013-11-3,53.9,37.2,26.4,39.1,30.0,23.3,88,77,48,30.34,30.20,18,3,18,0.00
2013-11-4,55.5,48.3,41.7,43.7,39.8,34.7,79,72,60,30.23,30.10,19,6,19,0.00
2013-11-5,53.9,50.3,47.1,50.5,46.3,32.8,89,86,79,30.28,29.92,21,4,21,0.16
2013-11-6,55.9,42.9,27.5,53.0,37.1,22.5,90,80,59,30.31,29.82,19,7,19,0.16
2013-11-7,44.9,32.1,23.7,33.5,26.7,19.9,87,81,63,30.34,30.29,13,3,13,0.00
2013-11-8,50.3,38.2,23.9,35.5,29.0,20.6,87,71,47,30.37,29.89,25,4,25,0.00
2013-11-9,58.8,47.5,37.9,41.7,36.9,29.0,81,67,51,30.27,21.49,24,10,24,2.65
2013-11-10,51.9,39.7,26.4,33.9,29.9,22.8,86,69,48,30.45,30.25,17,4,17,0.00
2013-11-11,44.2,34.5,20.1,35.0,27.5,13.9,88,76,66,30.66,30.15,27,5,27,0.00
2013-11-12,33.0,21.2,13.8,21.4,14.1,9.6,83,75,58,30.83,21.49,15,4,15,2.98
2013-11-13,43.1,25.2,14.1,21.1,15.1,9.6,83,68,39,30.66,21.49,30,6,30,2.98
2013-11-14,51.6,40.0,30.3,30.7,25.8,14.4,68,57,39,30.18,29.97,21,7,21,0.00
2013-11-15,56.4,42.9,33.0,35.8,31.1,25.6,82,64,44,30.03,29.92,22,4,22,0.00
2013-11-16,58.8,50.4,37.4,54.1,46.1,32.1,88,85,81,29.92,29.54,29,8,29,0.02
2013-11-17,69.0,55.8,38.8,61.7,51.6,34.5,89,86,75,29.91,20.54,29,8,29,0.04
2013-11-18,43.7,35.8,24.4,34.5,27.6,19.8,85,73,52,30.35,29.91,30,8,30,0.02
2013-11-19,42.6,31.7,21.9,29.1,24.8,18.1,87,76,56,30.40,30.26,16,3,16,0.02
2013-11-20,38.8,34.9,30.5,34.3,30.4,26.0,89,83,71,30.28,30.10,52,5,52,0.06
2013-11-21,41.7,39.0,36.5,37.8,35.8,33.6,90,88,85,30.34,30.14,14,5,14,0.02
2013-11-22,37.9,32.8,18.3,34.7,27.4,14.6,89,81,63,30.58,21.58,26,9,26,2.98
2013-11-23,20.3,18.3,16.1,14.9,13.5,-2.7,85,81,39,30.71,21.58,22,5,22,0.12
2013-11-24,28.9,22.4,6.9,12.5,8.9,2.8,83,57,38,30.77,30.38,18,8,18,0.12
2013-11-25,34.3,27.5,19.4,26.4,21.3,10.9,87,77,66,30.38,30.14,19,7,19,0.12
2013-11-26,33.8,24.6,11.4,25.9,16.4,4.3,88,72,49,30.33,30.13,20,5,20,0.12
2013-11-27,30.0,17.5,8.2,13.5,8.2,2.4,77,67,46,30.39,30.25,16,4,16,0.12
2013-11-28,34.5,25.1,16.7,19.2,14.6,9.4,75,64,51,30.49,30.18,19,4,19,0.12
2013-11-29,37.2,28.1,13.6,22.4,18.9,-4.2,85,69,51,30.65,21.58,13,4,13,0.00
2013-11-30,50.1,35.1,24.9,33.7,26.7,19.1,84,72,52,30.39,30.10,18,4,18,0.00
2013-12-1,44.2,34.4,26.7,31.2,27.4,22.8,87,76,59,30.20,30.04,13,4,13,0.00
2013-12-2,40.1,35.2,30.0,33.0,30.4,26.6,88,83,73,30.04,29.74,15,7,15,0.00
2013-12-3,42.9,38.4,35.7,40.5,35.5,32.5,91,89,88,29.76,21.58,13,6,13,0.02
2013-12-4,49.6,41.8,26.4,46.9,39.2,23.1,91,91,51,29.85,29.55,21,3,21,0.00
2013-12-5,26.4,18.5,13.8,23.3,12.1,7.4,88,76,65,30.38,29.84,21,8,21,0.00
2013-12-6,20.3,11.7,6.6,7.7,4.0,1.4,79,71,55,30.65,30.36,14,5,14,0.00
2013-12-7,19.0,8.8,-0.2,4.5,-0.1,-4.6,82,68,49,30.78,30.63,11,3,11,0.00
2013-12-8,20.4,18.8,10.6,17.4,14.7,3.0,89,84,67,30.42,29.45,18,7,18,0.00
2013-12-9,19.2,6.4,-10.1,16.5,1.6,-14.8,89,80,66,30.31,30.03,10,3,10,0.00
2013-12-10,19.5,10.3,-7.9,12.6,3.7,-12.2,84,74,61,30.34,30.03,21,5,21,0.00
2013-12-11,16.8,10.3,-9.0,12.8,4.8,-15.3,86,78,54,30.64,20.60,17,2,17,3.12
2013-12-12,23.1,9.0,-6.5,12.1,2.3,-11.6,83,74,60,30.60,30.25,15,4,15,0.02
2013-12-13,26.7,18.9,8.4,22.2,13.8,4.6,87,80,71,30.25,30.10,18,7,18,0.02
2013-12-14,25.5,22.6,13.2,20.9,19.1,8.2,88,86,79,30.14,30.06,23,13,23,3.10
2013-12-15,13.2,10.3,5.5,8.2,4.1,-0.2,83,76,68,30.20,30.09,18,5,18,0.00
2013-12-16,19.5,10.7,9.3,16.5,5.8,3.0,88,80,73,30.18,20.60,10,2,10,0.02
2013-12-17,36.3,24.5,13.1,27.0,18.5,8.4,88,79,57,30.23,21.59,24,7,24,3.10
2013-12-18,42.4,25.2,10.5,27.0,17.7,6.6,85,74,50,30.22,29.86,20,3,20,0.00
2013-12-19,35.2,30.3,24.6,29.2,26.4,21.3,90,85,77,29.97,21.59,20,5,20,0.02
2013-12-20,31.8,26.4,23.7,29.2,23.7,20.9,90,89,89,29.92,21.59,0,0,0,3.10
2013-12-21,27.1,24.9,23.9,24.6,22.3,21.4,90,90,88,29.94,29.82,0,0,0,3.10
2013-12-22,28.5,22.2,12.7,24.8,18.6,9.1,90,86,82,30.26,21.59,21,5,21,1.12
2013-12-23,12.7,-1.5,-10.1,9.3,-7.7,-14.3,86,75,65,30.55,22.45,11,3,11,4.26
2013-12-24,15.0,1.3,-16.2,11.2,-4.3,-21.0,85,77,65,30.61,30.32,9,1,9,1.16
2013-12-25,24.4,20.3,13.6,20.4,16.6,7.8,89,85,77,30.32,30.19,13,2,13,1.16
2013-12-26,32.5,22.9,10.2,25.8,18.2,6.1,88,82,72,30.29,30.18,13,2,13,1.16
2013-12-27,37.2,24.6,13.8,29.5,20.6,11.2,89,85,70,30.33,30.15,14,2,14,4.26
2013-12-28,46.0,36.6,27.6,33.9,29.7,13.1,88,76,52,30.15,29.85,19,5,19,4.26
2013-12-29,35.9,17.8,-4.7,29.4,12.0,-12.0,89,78,68,30.35,29.84,32,7,32,4.26
2013-12-30,12.0,-1.4,-13.1,0.1,-8.1,-18.5,82,73,52,30.39,30.25,5,0,5,4.26
2013-12-31,10.7,3.7,-8.3,4.9,-0.9,-12.6,83,81,74,30.40,30.26,15,2,16,4.26
2014-1-1,11.6,8.2,3.9,7.7,3.9,-0.1,85,82,76,30.33,30.28,21,13,21,4.26
2014-1-2,15.0,6.7,-5.6,5.6,0.1,-10.7,79,74,65,30.50,30.29,19,8,19,4.26